Location: Saint-Palais-sur-Mer
(45.6429°N, 1.0859°W)
Time: 14:03:39
(UTC+01:00)

ARIANE 6 FM1 Upper Stage - Pass Details

Date: 21 January 2026
Orbit: 522 x 609 km, 62.0° (Epoch: 13 February)

Event Time Altitude Azimuth Distance (km) Brightness Sun altitude
Rises 20:09:05 0° 211° (SSW) 2,710 6.7 -23.2°
Reaches altitude 10° 20:11:20 10° 209° (SSW) 1,806 5.6 -23.6°
Enters shadow 20:14:09 42° 191° (SSW) 780 3.4 -24.1°
